Regional Weather Roundup
Issued by NWS

Home | Current Version | Previous Version | Graphics & Text | Print | Product List | Glossary On
Versions: 1 2 3 4 5 6 7 8 9 10 11 12 13 14 15 16 17 18 19 20 21 22 23 24 25 26 27 28 29 30 31 32 33 34 35 36 37 38 39 40 41 42 43 44 45 46 47 48 49 50
000
ASUS45 KCYS 110510
RWRWY

WYOMING REGIONAL WEATHER ROUNDUP
NATIONAL WEATHER SERVICE CHEYENNE WY
1000 PM MST WED FEB 10 2016

NOTE:  "FAIR" INDICATES FEW OR NO CLOUDS BELOW 12,000 FEET
WITH NO SIGNIFICANT WEATHER AND/OR OBSTRUCTIONS TO VISIBILITY.

WYZ001-110600-
YELLOWSTONE NATIONAL PARK

CITY           SKY/WX    TMP DP  RH WIND       PRES   REMARKS
LK YELLOWSTONE   N/A     24  19  81 CALM      30.35F
W YELLOWSTONE  NOT AVBL

$$
WYZ002>013-054>058-071-098>099-110600-
NORTHERN WYOMING

CITY           SKY/WX    TMP DP  RH WIND       PRES   REMARKS
JACKSON        FAIR      10  10 100 N7        30.36S WCI   0
CODY           FAIR      50  18  27 CALM      30.15S
GREYBULL       FAIR      32  25  75 E3        30.14S
WORLAND        FAIR      27  25  92 S5        30.14S WCI  22
SHERIDAN       FAIR      34  26  72 S5        30.08F WCI  30
BUFFALO        FAIR      41  24  51 SW9       30.11F
GILLETTE       FAIR      30  25  81 S5        30.10F WCI  25
HULETT         FAIR      34  27  75 S6        30.09F WCI  29
NEWCASTLE      FAIR      32  23  69 CALM      30.11R

$$
WYZ014>020-022>026-101>103-110600-
CENTRAL WYOMING

CITY           SKY/WX    TMP DP  RH WIND       PRES   REMARKS
BIG PINEY      FAIR      22  15  75 N7        30.33S WCI  13
PINEDALE         N/A     25  18  74 NW5       30.34R WCI  19
DUBOIS         FAIR      34  14  44 NW22      30.24S WCI  22
LANDER         FAIR      34  17  50 VRB3      30.18R
RIVERTON       FAIR      30  20  66 SW9       30.19F WCI  22
CASPER         FAIR      37  22  54 SW17G25   30.16F WCI  27
DOUGLAS        FAIR      30  24  78 N5          N/A  WCI  25

$$
WYZ021-027>030-104>119-110600-
SOUTHERN WYOMING

CITY           SKY/WX    TMP DP  RH WIND       PRES   REMARKS
EVANSTON       FAIR      27  14  58 SW13      30.38F WCI  16
KEMMERER       FAIR      30  18  59 CALM      30.36F
FORT BRIDGER   CLEAR     37  14  38 W18       30.39S WCI  27
ROCK SPRINGS   FAIR      35  19  52 SW16      30.31F WCI  25
DIXON          FAIR      12   6  77 CALM      30.38S
RAWLINS        FAIR      32  17  54 SW17G25   30.27F WCI  21
SARATOGA       FAIR      32  18  55 S8        30.30F WCI  25
LARAMIE        FAIR      27  17  66 S10       30.23S WCI  17
CHEYENNE       FAIR      38  15  39 NW5       30.19R WCI  34
TORRINGTON     FAIR      35  23  61 NW5       30.14R WCI  31
PINE BLUFFS    FAIR      37  21  52 W15       30.18S WCI  28

$$



USA.gov is the U.S. government's official web portal to all federal, state and local government web resources and services.